Terminal Aerodrome Forecast
Issued by NWS Cleveland, OH

Home | Current Version | Previous Version | Graphics & Text | Print | Product List | Glossary On
Versions: 1 2 3 4 5 6 7 8 9 10 11 12 13 14 15 16 17 18 19 20 21 22 23 24 25 26 27 28 29 30 31 32
000
FTUS41 KCLE 191300 AAA
TAFCLE
TAF AMD
KCLE 191355Z 1914/2018 30011KT P6SM BKN025
      TEMPO 1915/1917 SCT025 BKN040
     FM191700 29012KT P6SM OVC040
     FM200000 32009KT P6SM OVC040
     FM200600 35009KT P6SM BKN250=

USA.gov is the U.S. government's official web portal to all federal, state and local government web resources and services.